Find Starlink 6160

NORAD ID: 56382 Int'l Des: 2023-061 Owner: SPXS Country: US Constellation: starlink operational
LEOCIRCULAR

リアルタイム位置

3D地球を読み込み中...

Starlink 6160について

説明を読み込み中...

次回通過

Passes for default location (London). Set your location on the main map for personalized predictions.

高度履歴

Loading altitude history...

軌道要素

1 56382U 23061J 26126.33912067 .00001805 00000-0 75111-4 0 9997
2 56382 43.0041 232.5596 0001282 296.4195 63.6525 15.27580245165568
Epoch: May 6, 2026 • Age: 24 hours

現在のステータス

高度 483.0 km
速度 7.63 km/s
衛星直下点 18.65°N, 35.46°E
打ち上げ日 May 4, 2023
運用期間 3 years
タイプ internet

技術仕様

分類 Payload
質量 305.00 kg
乾燥質量 290.00 kg
総質量 305.00 kg
長さ 0.20 m
直径 2.80 m
スパン 9.00 m
形状 Box + pan
製造者 SPXS
バスタイプ Starlink
フェーズステータス In Orbit
所有者/国 SPXS/US

Most Searched